[[{"header":{"parameterUnit":"m.s-1","parameterCategory":2,"la1":30.2991,"la2":30.254,"lo1":-89.0895,"lo2":-89.0444,"dy":0.0017,"dx":0.0017,"nx":28,"ny":28,"refTime":"2024-08-11T09:00:00:Z","depth":"0","parameterNumber":2,"parameterNumberName":"U-component_of_CURRENTS"},"data":[0,0,0,0,0,0,0,0,0,0,0,0,0,0,0,0,0,0,0,0,0,0,0,0,0,0,0,0,0,0,0,0,0,0,0,0,0,0,0,0,0,0,0,0,0,0,0,0,0,0,0,0,0,0,0,0,0,0,0.3185,0.3186,0,0.322,0.322,0.322,0.3243,0.3244,0.3244,0.3245,0.3264,0.3264,0.3264,0,0,0,0,0,0,0,0,0,0,0,0,0,0.313,0.3131,0.3185,0.3186,0.3187,0.322,0.322,0.322,0.3243,0.3244,0.3245,0.3245,0.3264,0.3264,0.3264,0,0,0,0,0,0,0,0,0,0,0,0,0,0.3155,0.3131,0.3185,0.3205,0.3208,0.322,0.322,0.322,0.3243,0.3244,0.3245,0.3245,0.3264,0.3264,0.3264,0.3248,0,0,0.3264,0.3264,0,0,0,0,0,0,0,0,0.3153,0.3156,0.3202,0.3204,0.3207,0.3231,0.3207,0.323,0.3243,0.3226,0.3245,0.3246,0.3253,0.3254,0.3254,0.3249,0.325,0.3264,0.3264,0.3264,0.3264,0,0,0,0,0,0,0,0.3152,0.3155,0.3195,0.3202,0.3206,0.3209,0.3213,0.3211,0.3232,0.3227,0.323,0.324,0.3254,0.3254,0.3254,0.325,0.3264,0.3264,0.3264,0.3264,0.3284,0.3285,0,0,0,0,0,0,0.3155,0.3153,0.3194,0.3197,0.3186,0.321,0.3214,0.322,0.3232,0.3236,0.3239,0.3241,0.3253,0.3254,0.3255,0.3267,0.3264,0.3264,0.3264,0.3284,0.3284,0.3285,0,0,0,0,0,0,0.3153,0.3158,0.3193,0.3179,0.3184,0.3211,0.3216,0.322,0.3223,0.3242,0.3245,0.3239,0.3254,0.3255,0.3268,0.3267,0.3264,0.3264,0.3283,0.3284,0.3285,0.3272,0,0,0,0,0,0,0.3151,0.3157,0.3153,0.3179,0.3185,0.3198,0.3216,0.322,0.323,0.3232,0.3243,0.3245,0.3255,0.3268,0.3269,0.3267,0.3264,0.3282,0.3284,0.3284,0.3272,0.3272,0.3273,0,0,0,0,0,0.3149,0.3141,0.3153,0.3158,0.3182,0.3198,0.32,0.3219,0.3229,0.3225,0.3246,0.3245,0.3275,0.3269,0.3269,0.3267,0.3282,0.3283,0.3284,0.3271,0.3272,0.3273,0,0,0,0,0,0,0.3108,0.3144,0.3157,0.3158,0.3178,0.3203,0.32,0.3216,0.3228,0.323,0.3248,0.3252,0.327,0.3269,0.3262,0.3279,0.3279,0.328,0.3269,0.327,0.327,0.3273,0.3264,0,0,0,0,0,0.3101,0.3106,0.314,0.3138,0.3148,0.3173,0.318,0.3195,0.3214,0.322,0.3232,0.3249,0.3272,0.3272,0.329,0.3285,0.3309,0.3287,0.3287,0.3287,0.3291,0.3331,0.3336,0.3289,0.3289,0.3289,0,0,0.3084,0.3104,0.3106,0.3131,0.3144,0.3153,0.3177,0.3186,0.3195,0.3219,0.3226,0.3253,0.3276,0.3288,0.3294,0.3285,0.3315,0.3289,0.3289,0.3293,0.3333,0.3337,0.3342,0.329,0.329,0.3289,0,0,0.3058,0.3071,0.3071,0.3086,0.3113,0.3131,0.3134,0.3161,0.3173,0.3186,0.3221,0.325,0.3258,0.3288,0.3301,0.3311,0.3326,0.3311,0.3299,0.3338,0.3342,0.3346,0.3385,0.3393,0.3298,0.3298,0.3298,0,0.3037,0.3044,0.3071,0.3076,0.3088,0.3121,0.3125,0.3138,0.3167,0.3185,0.3184,0.3246,0.3261,0.3302,0.3309,0.3312,0.3336,0.3293,0.3338,0.3343,0.3347,0.3386,0.3395,0.3297,0.3297,0.3297,0.3298,0,0.3018,0.3022,0.302,0.3043,0.3057,0.3061,0.3096,0.3109,0.3128,0.3153,0.3197,0.3229,0.3269,0.3277,0.3292,0.3333,0.3344,0.3344,0.3334,0.3351,0.3391,0.3401,0.3297,0.3297,0.3297,0.3297,0,0,0.2969,0.3003,0.2998,0.3007,0.3041,0.3049,0.307,0.3104,0.3126,0.3151,0.3186,0.323,0.3261,0.3281,0.331,0.3335,0.3386,0.3344,0.3346,0.3379,0.3475,0.3529,0.3544,0.3392,0.3393,0.3394,0.3493,0,0.2944,0.2945,0.2975,0.2975,0.2979,0.3023,0.3043,0.3081,0.3114,0.3152,0.3201,0.3244,0.3257,0.3284,0.3313,0.3377,0.3408,0.3359,0.3458,0.3461,0.3504,0.3556,0.3516,0.3605,0.3502,0.3503,0.3504,0,0.2911,0.292,0.2917,0.2953,0.2961,0.2969,0.3017,0.3043,0.3112,0.3143,0.3198,0.3243,0.3307,0.3306,0.3412,0.338,0.3428,0.3465,0.347,0.3531,0.3532,0.3572,0.3625,0.3404,0.3518,0.3517,0.3516,0,0.2857,0.2877,0.2874,0.2882,0.2928,0.2941,0.2971,0.3035,0.3068,0.3144,0.3178,0.3259,0.3304,0.3375,0.3464,0.3439,0.3579,0.3554,0.3648,0.3652,0.3645,0.3647,0.3494,0.3627,0.3627,0.3626,0.3626,0,0.2815,0.2808,0.2845,0.284,0.2846,0.29,0.2924,0.2972,0.3046,0.3089,0.3169,0.322,0.3321,0.3414,0.3481,0.3612,0.3599,0.3669,0.369,0.3641,0.3641,0.3471,0.337,0.363,0.3629,0.3629,0.3628,0,0.2751,0.2774,0.2771,0.2809,0.2818,0.2823,0.2885,0.2912,0.2992,0.3051,0.3079,0.3201,0.3329,0.3445,0.3576,0.3641,0.3652,0.3797,0.3741,0.3755,0.3631,0.3535,0.3431,0.3344,0.3913,0.3916,0.3917,0,0.2718,0.2708,0.2731,0.2729,0.2741,0.2762,0.2782,0.2867,0.2906,0.3038,0.3064,0.3209,0.3321,0.3557,0.3713,0.388,0.3696,0.3916,0.3865,0.3635,0.3541,0.3404,0.3325,0.3846,0.3847,0.3848,0.3849,0,0.2654,0.2661,0.2663,0.2663,0.2669,0.2687,0.2726,0.2752,0.2863,0.2932,0.3044,0.3149,0.3408,0.3569,0.3808,0.3912,0.3712,0.394,0.3704,0.3492,0.3328,0.3251,0.376,0.3856,0.3856,0.3855,0.3855,0.3854,0.2599,0.2589,0.2596,0.2598,0.2603,0.2617,0.2628,0.2693,0.2762,0.2874,0.2989,0.3126,0.3364,0.3713,0.3798,0.3825,0.3777,0.3727,0.3638,0.3525,0.3401,0.3942,0.406,0.4061,0.4061,0.4061,0.4061,0,0.2526,0.2535,0.2532,0.2534,0.2529,0.2557,0.2593,0.2608,0.2675,0.2802,0.2919,0.3094,0.3275,0.3437,0.3587,0.3503,0.3415,0.3364,0.3095,0.3042,0.3527,0.348,0.3472,0.3473,0.3473,0.3473,0.3473,0.3473,0.2483,0.2468,0.2482,0.2465,0.2472,0.245,0.2467,0.2495,0.2566,0.2633,0.2707,0.2822,0.2947,0.3053,0.3023,0.3027,0.2738,0.2716,0.2595,0.284,0.2862,0.2884,0.2809,0.2661,0.266,0.2063,0.2058,0.2054]},{"header":{"parameterUnit":"m.s-1","parameterCategory":2,"la1":30.2991,"la2":30.254,"lo1":-89.0895,"lo2":-89.0444,"dy":0.0017,"dx":0.0017,"nx":28,"ny":28,"refTime":"2024-08-11T09:00:00:Z","depth":"0","parameterNumber":3,"parameterNumberName":"V-component_of_CURRENTS"},"data":[0,0,0,0,0,0,0,0,0,0,0,0,0,0,0,0,0,0,0,0,0,0,0,0,0,0,0,0,0,0,0,0,0,0,0,0,0,0,0,0,0,0,0,0,0,0,0,0,0,0,0,0,0,0,0,0,0,0,-0.0685,-0.0685,0,-0.0698,-0.0699,-0.0699,-0.0717,-0.0717,-0.0717,-0.0718,-0.0809,-0.0812,-0.0814,0,0,0,0,0,0,0,0,0,0,0,0,0,-0.0684,-0.0683,-0.0685,-0.0685,-0.0685,-0.0698,-0.0699,-0.0699,-0.0717,-0.0717,-0.0717,-0.0718,-0.0809,-0.0811,-0.0814,0,0,0,0,0,0,0,0,0,0,0,0,0,-0.069,-0.0683,-0.0685,-0.0695,-0.0696,-0.0698,-0.0699,-0.0699,-0.0717,-0.0717,-0.0717,-0.0718,-0.0808,-0.0811,-0.0814,-0.0828,0,0,-0.0825,-0.0826,0,0,0,0,0,0,0,0,-0.069,-0.069,-0.0694,-0.0694,-0.0696,-0.0706,-0.0732,-0.0746,-0.0717,-0.071,-0.0718,-0.0718,-0.0781,-0.0787,-0.0789,-0.0833,-0.0837,-0.0825,-0.0827,-0.0828,-0.0829,0,0,0,0,0,0,0,-0.0689,-0.069,-0.0691,-0.0694,-0.0695,-0.0702,-0.0703,-0.0734,-0.0746,-0.0711,-0.0712,-0.0712,-0.0782,-0.0785,-0.0791,-0.0838,-0.0825,-0.0828,-0.083,-0.0831,-0.0909,-0.0909,0,0,0,0,0,0,-0.0685,-0.0689,-0.0691,-0.0692,-0.0692,-0.0701,-0.0703,-0.0703,-0.0744,-0.0749,-0.0711,-0.0712,-0.0779,-0.0787,-0.0795,-0.0825,-0.0828,-0.0832,-0.0833,-0.0909,-0.0909,-0.0909,0,0,0,0,0,0,-0.0685,-0.0685,-0.069,-0.069,-0.0691,-0.0701,-0.0701,-0.0703,-0.0707,-0.0743,-0.0751,-0.0713,-0.078,-0.079,-0.0819,-0.0828,-0.0833,-0.0836,-0.0909,-0.0909,-0.0909,-0.0879,0,0,0,0,0,0,-0.0685,-0.0685,-0.0685,-0.069,-0.0691,-0.0691,-0.07,-0.0703,-0.0706,-0.0708,-0.0748,-0.0756,-0.0781,-0.0813,-0.0822,-0.0833,-0.0839,-0.0909,-0.0909,-0.0909,-0.088,-0.0878,-0.0876,0,0,0,0,0,-0.0685,-0.0685,-0.0685,-0.0686,-0.0691,-0.069,-0.0692,-0.0701,-0.0706,-0.0706,-0.0731,-0.0755,-0.0821,-0.0816,-0.0826,-0.0838,-0.0909,-0.0909,-0.0909,-0.0881,-0.0878,-0.0876,0,0,0,0,0,0,-0.0694,-0.0687,-0.0687,-0.0689,-0.0688,-0.0693,-0.0696,-0.0699,-0.0717,-0.0721,-0.0755,-0.0765,-0.0793,-0.0818,-0.0812,-0.086,-0.0869,-0.0872,-0.0844,-0.0843,-0.0841,-0.0835,-0.0842,0,0,0,0,0,-0.0692,-0.0687,-0.0685,-0.0686,-0.0685,-0.0689,-0.0691,-0.0693,-0.0707,-0.0715,-0.0739,-0.0771,-0.0801,-0.0823,-0.0849,-0.0877,-0.0893,-0.0892,-0.089,-0.0889,-0.089,-0.0923,-0.0925,-0.091,-0.091,-0.091,0,0,-0.0697,-0.0692,-0.0691,-0.0687,-0.0688,-0.0685,-0.0692,-0.0691,-0.0694,-0.0724,-0.074,-0.0764,-0.0805,-0.0832,-0.0848,-0.0857,-0.0896,-0.0889,-0.0887,-0.089,-0.0924,-0.0925,-0.0927,-0.091,-0.091,-0.091,0,0,-0.0697,-0.0698,-0.069,-0.0685,-0.068,-0.0683,-0.0681,-0.0683,-0.0691,-0.0703,-0.0727,-0.0753,-0.0795,-0.0825,-0.0848,-0.0854,-0.0881,-0.0866,-0.0861,-0.0893,-0.0894,-0.0896,-0.0895,-0.0897,-0.0871,-0.0871,-0.0871,0,-0.0703,-0.0689,-0.0689,-0.0679,-0.0674,-0.0681,-0.0672,-0.0682,-0.0693,-0.0706,-0.0706,-0.0763,-0.0793,-0.0837,-0.0836,-0.0851,-0.0863,-0.0865,-0.089,-0.0892,-0.0895,-0.0893,-0.0896,-0.0869,-0.0869,-0.087,-0.087,0,-0.0692,-0.0681,-0.0678,-0.0665,-0.0663,-0.0656,-0.0663,-0.067,-0.0678,-0.0692,-0.0724,-0.0754,-0.0791,-0.0805,-0.0824,-0.0859,-0.0858,-0.0878,-0.0894,-0.0894,-0.0893,-0.0896,-0.0867,-0.0868,-0.0868,-0.0868,0,0,-0.0701,-0.0674,-0.0671,-0.0655,-0.0651,-0.0645,-0.0658,-0.067,-0.0676,-0.0699,-0.0712,-0.0762,-0.0777,-0.0803,-0.083,-0.0858,-0.0872,-0.0873,-0.0876,-0.0868,-0.092,-0.0853,-0.085,-0.0901,-0.0902,-0.0903,-0.0904,0,-0.069,-0.0661,-0.0654,-0.0632,-0.0617,-0.0625,-0.0632,-0.0648,-0.0665,-0.0681,-0.0729,-0.0747,-0.078,-0.0786,-0.0825,-0.0856,-0.0883,-0.0868,-0.0925,-0.0926,-0.0864,-0.0852,-0.074,-0.0727,-0.0908,-0.0908,-0.0909,0,-0.0674,-0.0655,-0.0628,-0.0602,-0.0597,-0.0591,-0.0597,-0.0601,-0.064,-0.0652,-0.0694,-0.0722,-0.0767,-0.0786,-0.0857,-0.0847,-0.0884,-0.0909,-0.091,-0.0863,-0.0865,-0.0761,-0.0726,-0.0824,-0.0914,-0.0913,-0.0913,0,-0.0665,-0.0633,-0.0608,-0.0599,-0.058,-0.0577,-0.0572,-0.0597,-0.0595,-0.0631,-0.0625,-0.0699,-0.0706,-0.0781,-0.0826,-0.0849,-0.0886,-0.0927,-0.0904,-0.0898,-0.082,-0.0806,-0.0884,-0.0985,-0.0985,-0.0985,-0.0985,0,-0.0647,-0.0625,-0.0599,-0.0584,-0.0559,-0.0553,-0.0538,-0.0549,-0.0556,-0.0544,-0.0604,-0.0589,-0.0706,-0.0738,-0.0809,-0.0841,-0.0876,-0.0893,-0.0897,-0.0803,-0.0788,-0.0885,-0.0957,-0.0985,-0.0985,-0.0985,-0.0985,0,-0.0634,-0.0618,-0.0586,-0.056,-0.055,-0.0532,-0.0502,-0.0492,-0.0495,-0.0476,-0.0479,-0.051,-0.0529,-0.0624,-0.0715,-0.0786,-0.086,-0.085,-0.0707,-0.0695,-0.0774,-0.0847,-0.0921,-0.0931,-0.0836,-0.0834,-0.0833,0,-0.0621,-0.0603,-0.0568,-0.0551,-0.0536,-0.0506,-0.0485,-0.0471,-0.0453,-0.041,-0.0394,-0.0393,-0.0364,-0.0449,-0.0555,-0.0647,-0.0768,-0.0643,-0.0678,-0.0753,-0.0839,-0.0903,-0.0912,-0.0557,-0.0554,-0.0551,-0.0549,0,-0.0596,-0.0588,-0.0562,-0.0526,-0.0497,-0.0467,-0.0432,-0.0397,-0.0367,-0.0312,-0.0232,-0.0187,-0.0223,-0.022,-0.0338,-0.0428,-0.0665,-0.0587,-0.0714,-0.0662,-0.0689,-0.0707,-0.0572,-0.0523,-0.0526,-0.0527,-0.0529,-0.053,-0.0575,-0.0557,-0.0525,-0.0483,-0.0459,-0.0421,-0.0351,-0.0293,-0.0206,-0.0032,-0.006,0.0151,0.0084,-0.0027,-0.0199,-0.0408,-0.0487,-0.0484,-0.0573,-0.0639,-0.063,-0.0418,-0.0348,-0.035,-0.0351,-0.0352,-0.0353,0,-0.0519,-0.0506,-0.0482,-0.0429,-0.038,-0.0381,-0.03,-0.0177,-0.0009,0.0198,0.0339,0.0535,0.0421,0.0231,-0.0082,-0.0337,-0.0456,-0.0493,-0.0579,-0.0597,-0.0437,-0.0406,-0.0284,-0.0284,-0.0284,-0.0284,-0.0283,-0.0283,-0.049,-0.0447,-0.0433,-0.0348,-0.0309,-0.0187,-0.011,0.0081,0.0281,0.0668,0.0943,0.1073,0.0946,0.0215,-0.0297,-0.0441,-0.0635,-0.0655,-0.0806,-0.0725,-0.0733,-0.074,-0.0729,-0.0676,-0.0677,-0.0882,-0.0884,-0.0886]}],[{"header":{"parameterUnit":"m.s-1","parameterCategory":2,"la1":30.2991,"la2":30.254,"lo1":-89.0895,"lo2":-89.0444,"dy":0.0017,"dx":0.0017,"nx":28,"ny":28,"refTime":"2024-08-11T09:00:00:Z","depth":"2","parameterNumber":2,"parameterNumberName":"U-component_of_CURRENTS"},"data":[0,0,0,0,0,0,0,0,0,0,0,0,0,0,0,0,0,0,0,0,0,0,0,0,0,0,0,0,0,0,0,0,0,0,0,0,0,0,0,0,0,0,0,0,0,0,0,0,0,0,0,0,0,0,0,0,0,0,0.1966,0.1967,0,0.2024,0.2024,0.2024,0.1995,0.1994,0.1992,0.1991,0.2017,0.2019,0.2021,0,0,0,0,0,0,0,0,0,0,0,0,0,0.1889,0.189,0.1966,0.1967,0.1968,0.2023,0.2024,0.2025,0.1995,0.1994,0.1992,0.1991,0.2017,0.2019,0.2021,0,0,0,0,0,0,0,0,0,0,0,0,0,0.1929,0.189,0.1966,0.1962,0.1962,0.2023,0.2024,0.2025,0.1995,0.1994,0.1992,0.199,0.2016,0.2019,0.2021,0.2077,0,0,0.203,0.2031,0,0,0,0,0,0,0,0,0.1927,0.1932,0.1961,0.1962,0.1963,0.2002,0.2007,0.2042,0.1996,0.198,0.1991,0.1989,0.2013,0.2016,0.2027,0.2078,0.2079,0.203,0.2032,0.2033,0.2034,0,0,0,0,0,0,0,0.1924,0.193,0.1986,0.1963,0.1964,0.1978,0.198,0.2013,0.2004,0.1981,0.198,0.1991,0.2012,0.2025,0.2028,0.208,0.203,0.2033,0.2034,0.2035,0.2221,0.2224,0,0,0,0,0,0,0.1922,0.1927,0.1984,0.1988,0.1943,0.1981,0.1984,0.1989,0.2004,0.2005,0.1993,0.199,0.2021,0.2024,0.2028,0.2121,0.2033,0.2036,0.2037,0.2218,0.2222,0.2226,0,0,0,0,0,0,0.192,0.1926,0.1982,0.1961,0.1969,0.1984,0.1991,0.1992,0.2001,0.2014,0.2013,0.2001,0.2019,0.2024,0.2078,0.212,0.2037,0.204,0.2214,0.2219,0.2224,0.229,0,0,0,0,0,0,0.1917,0.1925,0.1935,0.1961,0.197,0.2005,0.1993,0.1994,0.2013,0.2009,0.2021,0.2022,0.2018,0.2074,0.2081,0.2123,0.2042,0.221,0.2217,0.2222,0.2284,0.2297,0.2308,0,0,0,0,0,0.1914,0.192,0.1935,0.1943,0.1981,0.2005,0.2011,0.2014,0.2015,0.2016,0.205,0.2021,0.2117,0.208,0.2087,0.213,0.2207,0.2215,0.2222,0.2278,0.2294,0.2307,0,0,0,0,0,0,0.189,0.192,0.1936,0.1951,0.1977,0.2001,0.2009,0.2023,0.2052,0.2053,0.2063,0.2067,0.2131,0.2132,0.209,0.2206,0.2159,0.2168,0.2199,0.2214,0.2226,0.2198,0.2044,0,0,0,0,0,0.1895,0.1907,0.1941,0.1956,0.1968,0.1997,0.2012,0.2018,0.2048,0.2057,0.2069,0.2108,0.2172,0.219,0.2226,0.2289,0.2295,0.2325,0.2337,0.2347,0.2333,0.2409,0.2425,0.225,0.2249,0.2249,0,0,0.1892,0.1912,0.1919,0.1953,0.1973,0.1996,0.1999,0.202,0.205,0.2059,0.2099,0.2145,0.22,0.2272,0.23,0.2273,0.2405,0.2356,0.2364,0.2344,0.2418,0.2434,0.2449,0.2254,0.2254,0.2253,0,0,0.1882,0.1908,0.1912,0.1935,0.1971,0.1997,0.2006,0.2036,0.2057,0.212,0.215,0.2221,0.2286,0.2339,0.2381,0.2484,0.2467,0.2502,0.2535,0.261,0.2624,0.2636,0.2674,0.269,0.2506,0.2506,0.2506,0,0.1878,0.1891,0.1918,0.1931,0.1955,0.1998,0.2014,0.2057,0.2102,0.2137,0.2133,0.2282,0.2323,0.2443,0.2486,0.2508,0.2534,0.2472,0.2623,0.2635,0.2646,0.2682,0.2698,0.251,0.251,0.2509,0.2509,0,0.187,0.1889,0.1894,0.1931,0.196,0.198,0.2041,0.208,0.2126,0.217,0.228,0.2355,0.2437,0.2485,0.2523,0.2642,0.263,0.2628,0.2576,0.2667,0.27,0.2715,0.2516,0.2514,0.2513,0.2512,0,0,0.1846,0.1879,0.1884,0.1898,0.1961,0.1979,0.2053,0.2128,0.2176,0.2253,0.2324,0.2471,0.2504,0.2556,0.2617,0.2692,0.2815,0.27,0.2702,0.2717,0.2963,0.2784,0.2783,0.2845,0.2848,0.2851,0.2955,0,0.1836,0.1843,0.1876,0.1906,0.192,0.1991,0.205,0.2129,0.2206,0.2282,0.2403,0.2489,0.2537,0.2589,0.2682,0.2788,0.2858,0.2785,0.2888,0.289,0.2704,0.2795,0.2568,0.2627,0.297,0.2972,0.2974,0,0.183,0.1832,0.1841,0.1892,0.1905,0.1932,0.2032,0.2092,0.2228,0.2291,0.2407,0.2487,0.2644,0.265,0.2863,0.2818,0.2892,0.2958,0.2963,0.2773,0.2738,0.2593,0.2641,0.2999,0.2997,0.2995,0.2994,0,0.1796,0.1822,0.1822,0.1837,0.1896,0.1923,0.1969,0.2086,0.2144,0.229,0.2345,0.2524,0.2612,0.2757,0.2906,0.2901,0.3101,0.3106,0.3006,0.2994,0.2803,0.2767,0.3227,0.3227,0.3227,0.3227,0.3227,0,0.1788,0.1793,0.1796,0.1797,0.1806,0.187,0.1915,0.1995,0.2109,0.2187,0.2332,0.2421,0.2645,0.2786,0.2914,0.2997,0.3112,0.3012,0.3013,0.2819,0.2785,0.3102,0.3086,0.3231,0.323,0.3229,0.3228,0,0.1768,0.1774,0.1763,0.1782,0.1787,0.1792,0.1856,0.1902,0.2012,0.2119,0.2168,0.2369,0.2559,0.2743,0.2973,0.297,0.3089,0.308,0.2812,0.2775,0.2932,0.2919,0.2988,0.2982,0.2978,0.2974,0.2971,0,0.1764,0.175,0.1723,0.1709,0.1712,0.1725,0.175,0.1846,0.1901,0.2088,0.2139,0.2332,0.2441,0.266,0.2715,0.2842,0.3023,0.2687,0.2618,0.2915,0.2911,0.2905,0.2898,0.242,0.2413,0.2407,0.2402,0,0.1741,0.1717,0.1699,0.166,0.1652,0.1654,0.1694,0.172,0.1862,0.193,0.2053,0.2134,0.2283,0.2289,0.2397,0.246,0.2644,0.2558,0.2989,0.2479,0.2378,0.2374,0.2388,0.2348,0.2353,0.2357,0.236,0.2362,0.1716,0.168,0.1642,0.1616,0.1604,0.1602,0.1601,0.1655,0.1704,0.1785,0.1896,0.1933,0.197,0.1985,0.2023,0.2089,0.2247,0.2238,0.2259,0.2287,0.2165,0.2058,0.1944,0.1947,0.195,0.1952,0.1954,0,0.1679,0.1643,0.1612,0.1569,0.155,0.1568,0.1584,0.1561,0.1588,0.1621,0.1654,0.1519,0.151,0.1661,0.1605,0.1594,0.1617,0.164,0.1676,0.1727,0.1774,0.1629,0.1266,0.1265,0.1263,0.1262,0,0,0.1651,0.1607,0.1589,0.1532,0.152,0.1485,0.1488,0.1426,0.1412,0.1327,0.1303,0.1335,0.1469,0.1278,0.1293,0.1286,0.1503,0.1257,0.1796,0.188,0.1924,0.2093,0.1922,0,0,0,0,0]},{"header":{"parameterUnit":"m.s-1","parameterCategory":2,"la1":30.2991,"la2":30.254,"lo1":-89.0895,"lo2":-89.0444,"dy":0.0017,"dx":0.0017,"nx":28,"ny":28,"refTime":"2024-08-11T09:00:00:Z","depth":"2","parameterNumber":3,"parameterNumberName":"V-component_of_CURRENTS"},"data":[0,0,0,0,0,0,0,0,0,0,0,0,0,0,0,0,0,0,0,0,0,0,0,0,0,0,0,0,0,0,0,0,0,0,0,0,0,0,0,0,0,0,0,0,0,0,0,0,0,0,0,0,0,0,0,0,0,0,0.0904,0.0904,0,0.0848,0.0847,0.0846,0.0737,0.0735,0.0734,0.0732,0.0526,0.0523,0.0519,0,0,0,0,0,0,0,0,0,0,0,0,0,0.0889,0.089,0.0904,0.0904,0.0903,0.0848,0.0847,0.0846,0.0738,0.0735,0.0733,0.0731,0.0527,0.0523,0.0519,0,0,0,0,0,0,0,0,0,0,0,0,0,0.0869,0.089,0.0904,0.0844,0.0838,0.0848,0.0847,0.0846,0.0738,0.0735,0.0732,0.073,0.0529,0.0524,0.0518,0.0544,0,0,0.0502,0.0499,0,0,0,0,0,0,0,0,0.087,0.087,0.0853,0.0848,0.0841,0.0798,0.0766,0.0738,0.0739,0.0774,0.0732,0.0728,0.0607,0.0595,0.059,0.0534,0.0525,0.0501,0.0498,0.0495,0.0494,0,0,0,0,0,0,0,0.0872,0.0871,0.088,0.0853,0.0846,0.081,0.0803,0.0761,0.0704,0.0771,0.0763,0.0761,0.0602,0.0596,0.0584,0.0522,0.0501,0.0496,0.0493,0.0491,0.0411,0.0413,0,0,0,0,0,0,0.0888,0.0873,0.0882,0.0879,0.0851,0.0813,0.0806,0.0814,0.0707,0.069,0.0763,0.0756,0.0607,0.0591,0.0576,0.0569,0.0495,0.049,0.0487,0.041,0.0412,0.0413,0,0,0,0,0,0,0.0888,0.089,0.0884,0.0875,0.0872,0.0816,0.0826,0.0814,0.0797,0.0703,0.0682,0.0757,0.0604,0.0584,0.0546,0.056,0.0488,0.0483,0.0409,0.0411,0.0412,0.0572,0,0,0,0,0,0,0.0888,0.089,0.0906,0.0877,0.0873,0.0902,0.0829,0.0815,0.0801,0.0791,0.0691,0.067,0.06,0.0555,0.0541,0.0551,0.0479,0.0407,0.041,0.0412,0.0566,0.0579,0.0591,0,0,0,0,0,0.0888,0.0923,0.0907,0.0908,0.0895,0.0904,0.09,0.0847,0.0804,0.0816,0.0747,0.0672,0.0557,0.0553,0.0535,0.0545,0.0406,0.0409,0.0412,0.056,0.0577,0.0591,0,0,0,0,0,0,0.0925,0.0915,0.0896,0.0927,0.0921,0.0886,0.0895,0.086,0.0819,0.0799,0.07,0.0676,0.0638,0.058,0.0578,0.0527,0.0464,0.0464,0.0583,0.0598,0.061,0.0636,0.0474,0,0,0,0,0,0.0945,0.0967,0.095,0.0977,0.0977,0.0939,0.0935,0.0904,0.0865,0.0843,0.0765,0.069,0.0642,0.0612,0.055,0.0542,0.048,0.0532,0.0545,0.0556,0.0565,0.0506,0.0515,0.0422,0.0421,0.0421,0,0,0.0964,0.0966,0.0975,0.0986,0.0973,0.0998,0.0928,0.0935,0.0949,0.0828,0.0807,0.0728,0.0647,0.0626,0.0604,0.0578,0.055,0.0559,0.057,0.0572,0.051,0.0519,0.0527,0.0423,0.0423,0.0423,0,0,0.1018,0.102,0.1052,0.106,0.1058,0.1046,0.1052,0.1016,0.0994,0.0986,0.0889,0.0837,0.0759,0.0707,0.0675,0.0728,0.0614,0.0688,0.0781,0.0725,0.0732,0.0738,0.0677,0.0675,0.0702,0.0702,0.0703,0,0.1035,0.1077,0.1064,0.11,0.1113,0.1074,0.1111,0.1106,0.1056,0.1043,0.0996,0.0878,0.0808,0.0786,0.0798,0.0758,0.0696,0.0734,0.0743,0.0747,0.075,0.0686,0.0682,0.071,0.071,0.0709,0.0708,0,0.1109,0.1143,0.1168,0.1201,0.1221,0.1249,0.1244,0.1245,0.1209,0.118,0.1136,0.1045,0.0965,0.0942,0.089,0.0872,0.081,0.0763,0.0711,0.077,0.0697,0.0691,0.0722,0.0719,0.0717,0.0715,0,0,0.1122,0.1201,0.1204,0.1236,0.1272,0.1292,0.1343,0.136,0.1369,0.1319,0.1312,0.1241,0.1153,0.111,0.1019,0.0986,0.096,0.0892,0.0885,0.0843,0.082,0.0796,0.0785,0.0904,0.0903,0.0903,0.0763,0,0.117,0.1254,0.1286,0.1364,0.1403,0.1412,0.1459,0.1472,0.1454,0.1437,0.1366,0.1302,0.123,0.1165,0.1133,0.0989,0.0948,0.1001,0.0758,0.0751,0.0732,0.078,0.07,0.057,0.0756,0.0755,0.0754,0,0.1209,0.1265,0.1343,0.1434,0.1451,0.1488,0.1536,0.1572,0.1568,0.1544,0.1493,0.1407,0.1341,0.1261,0.1095,0.1122,0.0987,0.0891,0.0882,0.08,0.0716,0.0537,0.055,0.0742,0.0743,0.0744,0.0745,0,0.1191,0.13,0.1358,0.1387,0.1483,0.151,0.155,0.1577,0.1587,0.1571,0.1552,0.1475,0.1383,0.1257,0.1079,0.106,0.09,0.0839,0.0697,0.0692,0.0548,0.0533,0.0723,0.0723,0.0723,0.0724,0.0724,0,0.1215,0.1259,0.1344,0.1372,0.1429,0.15,0.1534,0.1569,0.1588,0.159,0.1565,0.1541,0.1369,0.1263,0.1112,0.0905,0.0916,0.0723,0.0662,0.0603,0.0594,0.0678,0.0674,0.0718,0.0719,0.072,0.0721,0,0.1167,0.1232,0.1291,0.1387,0.1411,0.1434,0.15,0.1523,0.1559,0.1559,0.1542,0.1534,0.1413,0.1267,0.1047,0.0913,0.0741,0.0657,0.0609,0.0547,0.0555,0.0561,0.0469,0.0467,0.0465,0.0464,0.0463,0,0.1154,0.1177,0.1257,0.127,0.1299,0.1346,0.1377,0.1461,0.1495,0.1559,0.1563,0.1482,0.1441,0.1181,0.0913,0.0658,0.0696,0.0439,0.0402,0.0582,0.0532,0.0541,0.0549,0.0259,0.0256,0.0254,0.0253,0,0.111,0.1116,0.1159,0.1184,0.121,0.1258,0.1321,0.1367,0.147,0.1521,0.1579,0.1562,0.1307,0.1036,0.0724,0.0564,0.0488,0.0386,0.0565,0.0363,0.038,0.0333,0.0348,0.0233,0.0235,0.0236,0.0237,0.0238,0.1043,0.1044,0.1077,0.1104,0.1123,0.1176,0.1229,0.1337,0.1436,0.1536,0.1545,0.1495,0.1208,0.0752,0.0516,0.0273,0.0303,0.0199,0.0206,0.0216,0.0244,0.0261,0.0095,0.0096,0.0097,0.0098,0.0098,0,0.0969,0.0983,0.1003,0.1041,0.1056,0.1078,0.1195,0.1289,0.1433,0.147,0.1504,0.1192,0.0915,0.0657,0.0214,-0.0008,-0.0018,-0.0024,-0.0016,0.0003,0.002,0.004,-0.0165,-0.0166,-0.0166,-0.0167,0,0,0.0926,0.0934,0.0968,0.0983,0.0989,0.1046,0.1118,0.1256,0.133,0.1399,0.1329,0.1222,0.0891,0.0525,0.0234,0.0023,0.0077,-0.0002,0.0217,0.0274,0.0294,0.0141,0.0193,0,0,0,0,0]}],[{"header":{"parameterUnit":"m.s-1","parameterCategory":2,"la1":30.2991,"la2":30.254,"lo1":-89.0895,"lo2":-89.0444,"dy":0.0017,"dx":0.0017,"nx":28,"ny":28,"refTime":"2024-08-11T09:00:00:Z","depth":"4","parameterNumber":2,"parameterNumberName":"U-component_of_CURRENTS"},"data":[0,0,0,0,0,0,0,0,0,0,0,0,0,0,0,0,0,0,0,0,0,0,0,0,0,0,0,0,0,0,0,0,0,0,0,0,0,0,0,0,0,0,0,0,0,0,0,0,0,0,0,0,0,0,0,0,0,0,0.0328,0.033,0,0.0434,0.0436,0.0437,0.055,0.0551,0.0553,0.0554,0.0622,0.0622,0.0623,0,0,0,0,0,0,0,0,0,0,0,0,0,0.0218,0.0219,0.0328,0.033,0.0331,0.0434,0.0436,0.0437,0.0549,0.0551,0.0553,0.0555,0.0622,0.0622,0.0623,0,0,0,0,0,0,0,0,0,0,0,0,0,0.0289,0.022,0.0328,0.0399,0.0407,0.0434,0.0436,0.0438,0.0549,0.0551,0.0554,0.0556,0.0622,0.0622,0.0623,0.0579,0,0,0.0624,0.0624,0,0,0,0,0,0,0,0,0.0285,0.0293,0.0387,0.0394,0.0403,0.0481,0.0422,0.0483,0.0548,0.0495,0.0554,0.0557,0.0569,0.0574,0.059,0.0582,0.0585,0.0624,0.0625,0.0625,0.0625,0,0,0,0,0,0,0,0.028,0.0289,0.0371,0.0389,0.0398,0.0424,0.0437,0.0434,0.0517,0.05,0.0508,0.0519,0.0574,0.0589,0.0592,0.0586,0.0624,0.0625,0.0625,0.0625,0.0637,0.0637,0,0,0,0,0,0,0.0264,0.0284,0.0367,0.0374,0.0348,0.0424,0.0438,0.0454,0.0518,0.0531,0.0517,0.0524,0.0587,0.0591,0.0595,0.0642,0.0625,0.0625,0.0626,0.0637,0.0637,0.0637,0,0,0,0,0,0,0.0261,0.0271,0.0363,0.0331,0.0345,0.0424,0.044,0.0454,0.053,0.0532,0.0544,0.0584,0.0589,0.0594,0.0635,0.0641,0.0626,0.0626,0.0637,0.0637,0.0637,0.0673,0,0,0,0,0,0,0.0258,0.0269,0.0301,0.033,0.0346,0.0421,0.0438,0.0455,0.0529,0.0541,0.0591,0.0597,0.0591,0.0634,0.0636,0.0642,0.0626,0.0637,0.0637,0.0637,0.0672,0.0675,0.0677,0,0,0,0,0,0.0254,0.0283,0.0301,0.0313,0.0378,0.0423,0.0435,0.0498,0.053,0.0573,0.0599,0.0599,0.0634,0.0636,0.0637,0.0643,0.0637,0.0637,0.0637,0.0671,0.0674,0.0677,0,0,0,0,0,0,0.0262,0.0298,0.0319,0.0363,0.0408,0.0443,0.0493,0.0525,0.0582,0.0607,0.0608,0.0615,0.0647,0.064,0.0641,0.0644,0.0631,0.0631,0.0656,0.0659,0.0661,0.0689,0.0627,0,0,0,0,0,0.0271,0.0303,0.034,0.0381,0.0408,0.0458,0.0495,0.0536,0.0574,0.0607,0.0639,0.0651,0.0635,0.065,0.0649,0.0659,0.0621,0.0659,0.0661,0.0663,0.0685,0.0596,0.0592,0.0637,0.0637,0.0637,0,0,0.0283,0.031,0.0329,0.0385,0.0428,0.0474,0.049,0.0561,0.06,0.0597,0.068,0.0671,0.0641,0.0651,0.0663,0.0656,0.0633,0.0663,0.0665,0.0686,0.0595,0.0591,0.0587,0.0637,0.0637,0.0637,0,0,0.0313,0.0352,0.0391,0.0432,0.0503,0.0524,0.0555,0.0623,0.0664,0.0723,0.0707,0.0707,0.0736,0.0692,0.067,0.0682,0.0649,0.0687,0.0724,0.0637,0.0632,0.0628,0.0585,0.0577,0.0687,0.0687,0.0687,0,0.0335,0.0387,0.0413,0.0465,0.0508,0.0551,0.0609,0.0639,0.0714,0.0724,0.0767,0.0751,0.0743,0.0682,0.0702,0.0686,0.0654,0.0716,0.0639,0.0633,0.0628,0.0586,0.0576,0.0689,0.0689,0.0689,0.0689,0,0.0385,0.0447,0.0479,0.0548,0.0591,0.0655,0.0689,0.074,0.0793,0.0804,0.0812,0.0792,0.0782,0.076,0.0752,0.0696,0.0692,0.065,0.0632,0.0626,0.0582,0.0571,0.0692,0.0691,0.069,0.069,0,0,0.0388,0.0494,0.0514,0.0566,0.065,0.0687,0.0736,0.0773,0.079,0.0843,0.0841,0.0825,0.0826,0.0801,0.076,0.0697,0.0644,0.0687,0.0682,0.0649,0.0491,0.0545,0.0537,0.0589,0.0587,0.0586,0.0479,0,0.0436,0.0541,0.0578,0.068,0.074,0.0779,0.0809,0.0838,0.0861,0.0864,0.0815,0.0812,0.083,0.0829,0.0771,0.0662,0.0617,0.068,0.0501,0.0497,0.0546,0.0526,0.058,0.047,0.0468,0.0466,0.0464,0,0.0481,0.0547,0.0661,0.0747,0.0776,0.0836,0.0883,0.0916,0.089,0.0902,0.0881,0.0853,0.0788,0.0798,0.0646,0.0692,0.0631,0.0546,0.0538,0.0574,0.053,0.0474,0.0444,0.0445,0.0447,0.0448,0.045,0,0.0476,0.0602,0.0698,0.0739,0.0834,0.0887,0.0933,0.094,0.0926,0.0929,0.0894,0.0844,0.0788,0.0706,0.0583,0.0627,0.038,0.0397,0.0383,0.0386,0.0353,0.0359,0.0298,0.0298,0.0298,0.0298,0.0299,0,0.0502,0.0583,0.0718,0.0773,0.0854,0.0922,0.0963,0.0995,0.0969,0.0887,0.0925,0.0816,0.0763,0.0616,0.0552,0.0426,0.0356,0.0402,0.0358,0.0374,0.0383,0.0346,0.0353,0.0294,0.0295,0.0296,0.0297,0,0.0493,0.0583,0.0698,0.083,0.0864,0.0934,0.0974,0.0937,0.0973,0.0857,0.0853,0.0771,0.0652,0.0559,0.0381,0.0368,0.0242,0.0206,0.0236,0.0192,0.0337,0.0347,0.0252,0.0253,0.0253,0.0254,0.0254,0,0.0499,0.0567,0.0731,0.0746,0.0819,0.0899,0.0879,0.0939,0.0859,0.0772,0.0655,0.0588,0.0525,0.0331,0.0274,0.02,0.0193,0.0156,0.0295,0.0365,0.0329,0.0339,0.0347,0.0256,0.0256,0.0256,0.0256,0,0.0487,0.0571,0.0636,0.0668,0.0694,0.0717,0.0709,0.0668,0.0645,0.0648,0.0513,0.0494,0.036,0.0323,0.027,0.0191,0.0207,0.0166,0.0167,0.0298,0.0368,0.0335,0.0342,0.0259,0.0259,0.0258,0.0258,0,0.0456,0.0475,0.0516,0.0565,0.0555,0.0522,0.0572,0.049,0.0475,0.0424,0.0344,0.0304,0.0292,0.0305,0.0193,0.0205,0.027,0.0295,0.0291,0.0288,0.0359,0.0457,0.0339,0,0,0,0,0,0.0405,0.0373,0.0366,0.0388,0.0377,0.0401,0.0387,0.0413,0.0399,0.0307,0.0367,0.0269,0.0272,0.0243,0.0276,0.022,0.0243,0.0258,0.0264,0.0274,0.0271,0.0356,0,0,0,0,0,0,0.0313,0.0302,0.0314,0.0229,0.022,0.0184,0.0216,0.023,0.0214,0.0231,0.0236,0.0284,0.0278,0.0255,0.0274,0.0274,0.0287,0.0268,0.027,0.0276,0.0273,0.027,0.0357,0,0,0,0,0]},{"header":{"parameterUnit":"m.s-1","parameterCategory":2,"la1":30.2991,"la2":30.254,"lo1":-89.0895,"lo2":-89.0444,"dy":0.0017,"dx":0.0017,"nx":28,"ny":28,"refTime":"2024-08-11T09:00:00:Z","depth":"4","parameterNumber":3,"parameterNumberName":"V-component_of_CURRENTS"},"data":[0,0,0,0,0,0,0,0,0,0,0,0,0,0,0,0,0,0,0,0,0,0,0,0,0,0,0,0,0,0,0,0,0,0,0,0,0,0,0,0,0,0,0,0,0,0,0,0,0,0,0,0,0,0,0,0,0,0,0.008,0.0079,0,-0.0029,-0.003,-0.0032,-0.0061,-0.006,-0.0059,-0.0058,-0.0154,-0.0157,-0.016,0,0,0,0,0,0,0,0,0,0,0,0,0,0.0196,0.0195,0.008,0.0079,0.0078,-0.0029,-0.003,-0.0032,-0.0061,-0.006,-0.0059,-0.0058,-0.0153,-0.0157,-0.0161,0,0,0,0,0,0,0,0,0,0,0,0,0,0.0121,0.0194,0.008,0.0052,0.0048,-0.0028,-0.003,-0.0033,-0.0061,-0.006,-0.0059,-0.0057,-0.0152,-0.0156,-0.0161,-0.0217,0,0,-0.0177,-0.0179,0,0,0,0,0,0,0,0,0.0125,0.0116,0.0057,0.0054,0.005,-0.0028,-0.0024,-0.0093,-0.0061,-0.0022,-0.0058,-0.0057,-0.011,-0.0119,-0.0145,-0.0222,-0.0226,-0.0177,-0.018,-0.0182,-0.0184,0,0,0,0,0,0,0,0.0131,0.012,0.0035,0.0056,0.0051,0.0022,0.0013,-0.0038,-0.0073,-0.0025,-0.0027,-0.0036,-0.0112,-0.014,-0.0147,-0.0227,-0.0177,-0.0181,-0.0184,-0.0186,-0.0339,-0.034,0,0,0,0,0,0,0.015,0.0125,0.0038,0.0032,0.0094,0.0019,0.0009,-0.0006,-0.0073,-0.0081,-0.0037,-0.0037,-0.0132,-0.0141,-0.0151,-0.0215,-0.0182,-0.0187,-0.019,-0.0338,-0.0339,-0.034,0,0,0,0,0,0,0.0152,0.0143,0.0043,0.0078,0.0064,0.0017,-0.0001,-0.0009,-0.0034,-0.0082,-0.009,-0.0053,-0.0132,-0.0144,-0.0206,-0.0218,-0.0189,-0.0194,-0.0337,-0.0338,-0.034,-0.0346,0,0,0,0,0,0,0.0156,0.0144,0.0137,0.0079,0.0063,-0.0009,-0.0002,-0.0012,-0.0041,-0.0042,-0.0098,-0.0106,-0.0132,-0.0198,-0.0211,-0.0225,-0.0197,-0.0335,-0.0337,-0.0339,-0.0345,-0.0348,-0.0351,0,0,0,0,0,0.016,0.0141,0.0137,0.0127,0.0055,-0.001,-0.0023,-0.0053,-0.0043,-0.0068,-0.0103,-0.0104,-0.0219,-0.0204,-0.0218,-0.0234,-0.0334,-0.0337,-0.0339,-0.0343,-0.0347,-0.0351,0,0,0,0,0,0,0.0185,0.0134,0.013,0.0096,0.0048,-0.0014,-0.0037,-0.0054,-0.0104,-0.0098,-0.0134,-0.0146,-0.0204,-0.0222,-0.0205,-0.0283,-0.0271,-0.0276,-0.0269,-0.0273,-0.0276,-0.027,-0.0202,0,0,0,0,0,0.019,0.0163,0.011,0.0082,0.0062,0.0015,-0.0013,-0.0035,-0.0084,-0.0103,-0.0138,-0.0177,-0.0228,-0.0251,-0.0299,-0.035,-0.0351,-0.0364,-0.0367,-0.0369,-0.0374,-0.04,-0.0406,-0.0348,-0.0348,-0.0348,0,0,0.0192,0.0161,0.0147,0.0086,0.0051,0.0002,-0.0,-0.0045,-0.0085,-0.0107,-0.0165,-0.0197,-0.0247,-0.0304,-0.0329,-0.0318,-0.0382,-0.0372,-0.0374,-0.0377,-0.0403,-0.0409,-0.0413,-0.035,-0.035,-0.0349,0,0,0.0177,0.0157,0.0129,0.0086,0.0033,-0.0004,-0.0015,-0.0074,-0.0097,-0.0158,-0.0182,-0.0227,-0.0294,-0.0338,-0.0368,-0.0418,-0.0403,-0.0417,-0.0424,-0.045,-0.0454,-0.0459,-0.0443,-0.0446,-0.0411,-0.0411,-0.0411,0,0.0188,0.0145,0.0108,0.0065,0.0035,-0.0005,-0.0045,-0.0092,-0.0162,-0.0185,-0.0172,-0.028,-0.0315,-0.0398,-0.0406,-0.0426,-0.0416,-0.0405,-0.0452,-0.0457,-0.0461,-0.0445,-0.0448,-0.0412,-0.0412,-0.0412,-0.0412,0,0.0145,0.0112,0.009,0.0027,-0.0018,-0.0058,-0.0119,-0.0158,-0.0174,-0.0214,-0.0282,-0.0333,-0.0381,-0.0404,-0.042,-0.0473,-0.0446,-0.0457,-0.0439,-0.0467,-0.0448,-0.0451,-0.0413,-0.0412,-0.0412,-0.0412,0,0,0.0178,0.0082,0.0082,0.0055,-0.0034,-0.0068,-0.0141,-0.0211,-0.0242,-0.0297,-0.0342,-0.0421,-0.0416,-0.0449,-0.0473,-0.0502,-0.0512,-0.0479,-0.048,-0.0455,-0.0529,-0.0487,-0.0485,-0.0521,-0.0522,-0.0523,-0.0494,0,0.0166,0.0103,0.0048,-0.0012,-0.0049,-0.0111,-0.0168,-0.0236,-0.0286,-0.0342,-0.0397,-0.0436,-0.0444,-0.0439,-0.0481,-0.0522,-0.0524,-0.0517,-0.0514,-0.0513,-0.0466,-0.049,-0.0527,-0.0497,-0.0497,-0.0498,-0.0498,0,0.0155,0.0113,0.0078,-0.0013,-0.0031,-0.004,-0.0115,-0.0177,-0.0278,-0.0318,-0.0378,-0.0427,-0.049,-0.0471,-0.0541,-0.0529,-0.0514,-0.0537,-0.0536,-0.05,-0.0478,-0.0471,-0.0503,-0.0503,-0.0503,-0.0502,-0.0502,0,0.0222,0.0133,0.0124,0.0095,-0.0006,0.0014,-0.0014,-0.0113,-0.0174,-0.0253,-0.031,-0.0403,-0.0425,-0.0465,-0.0501,-0.0509,-0.0563,-0.0581,-0.0528,-0.0523,-0.0565,-0.0561,-0.0597,-0.0597,-0.0597,-0.0597,-0.0598,0,0.0224,0.0214,0.0199,0.0196,0.0223,0.0131,0.0144,0.0077,-0.0037,-0.0129,-0.0232,-0.0319,-0.0421,-0.0485,-0.0502,-0.0519,-0.0548,-0.0531,-0.0524,-0.0564,-0.0561,-0.0564,-0.0561,-0.0596,-0.0597,-0.0597,-0.0597,0,0.0286,0.0261,0.0266,0.0243,0.0273,0.032,0.0288,0.023,0.0136,0.001,-0.0013,-0.0233,-0.0314,-0.0406,-0.0474,-0.0501,-0.0527,-0.0503,-0.0509,-0.0501,-0.0468,-0.0466,-0.0473,-0.0472,-0.047,-0.0469,-0.0468,0,0.0298,0.0317,0.0372,0.0421,0.0456,0.0513,0.0508,0.0391,0.0265,0.0052,-0.0058,-0.0159,-0.0286,-0.0328,-0.0433,-0.0458,-0.0453,-0.0455,-0.0504,-0.0469,-0.0461,-0.046,-0.0459,-0.0466,-0.0466,-0.0466,-0.0465,0,0.0326,0.0391,0.0399,0.0506,0.0575,0.0595,0.0565,0.0497,0.0278,0.0159,-0.0026,-0.0104,-0.0212,-0.0302,-0.0302,-0.0336,-0.0474,-0.0442,-0.0446,-0.0492,-0.0461,-0.0454,-0.0454,-0.0461,-0.0462,-0.0462,-0.0462,0,0.0392,0.0416,0.0457,0.0581,0.0641,0.0664,0.0649,0.05,0.0393,0.0095,0.0061,-0.0064,-0.0175,-0.0237,-0.026,-0.0276,-0.0304,-0.0314,-0.0325,-0.0332,-0.0316,-0.0257,-0.0189,0,0,0,0,0,0.044,0.0471,0.0514,0.0593,0.064,0.0714,0.0622,0.0534,0.033,0.0226,0.0139,0.0051,-0.0035,-0.0118,-0.0114,-0.0253,-0.0314,-0.0257,-0.033,-0.0437,-0.0442,-0.0447,0,0,0,0,0,0,0.0449,0.0493,0.0504,0.0602,0.0687,0.0694,0.07,0.056,0.0456,0.0277,0.0243,0.0099,0.0024,0.0035,-0.0074,-0.0107,-0.0151,-0.0341,-0.0342,-0.0434,-0.0438,-0.0442,-0.045,0,0,0,0,0]}]]